Charleston, WV

4:30 PM EDT on April 28, 2017 (GMT -0400)
Yeager Airport

Weather History for KCRW - May, 2014

Change the Weather History Date:

Friday, May 16, 2014

  Actual Average Record
Temperature  
Mean Temperature 54 °F 64 °F  
Max Temperature 62 °F 75 °F 92 °F (1962)
Min Temperature 45 °F 53 °F 35 °F (1984)
Degree Days  
Heating Degree Days 11 4  
Month to date heating degree days 46 77  
Since 1 July heating degree days 4732 4425  
Cooling Degree Days 0 2  
Month to date cooling degree days 51 25  
Year to date cooling degree days 69 57  
Growing Degree Days 4 (Base 50)    
Moisture  
Dew Point 45 °F    
Average Humidity 76    
Maximum Humidity 100    
Minimum Humidity 51    
Precipitation  
Precipitation 0.14 in 0.15 in 1.54 in (1945)
Month to date precipitation 1.89 2.39  
Year to date precipitation 15.64 15.73  
Snow  
Snow 0.00 in - - ()
Month to date snowfall 0.0  
Since 1 September snowfall 51.7  
Snow Depth 0.00 in    
Sea Level Pressure  
Sea Level Pressure 30.01 in    
Wind  
Wind Speed 5 mph (West)    
Max Wind Speed 22 mph    
Max Gust Speed 31 mph    
Visibility 9 miles    
Events Rain    
T = Trace of Precipitation, MM = Missing Value Source: NWS Daily Summary

Daily Weather History Graph

Daily Weather History Graph

Search for Another Location

Airport or City:

Trip Planner

Search our weather history database for the weather conditions in past years. The results will help you decide how hot, cold, wet, or windy it might be!

Date:

Astronomy

May. 16, 2014 Rise Set
Actual Time 6:14 AM EDT 8:31 PM EDT
Civil Twilight 5:44 AM EDT 9:01 PM EDT
Nautical Twilight 5:07 AM EDT 9:38 PM EDT
Astronomical Twilight 4:27 AM EDT 10:18 PM EDT
Moon 10:37 PM EDT (5/16) 7:54 AM EDT (5/16)
Length of Visible Light 15h 17m
Length of Day
14h 17m
Waning Gibbous, 95% of the Moon is Illuminated
May 16
Waning Gibbous
May 21
Last Quarter
May 28
New
Jun 5
First Quarter
Jun 13
Full

Hourly Weather History & Observations

Time (EDT) Temp. Windchill Dew Point Humidity Pressure Visibility Wind Dir Wind Speed Gust Speed Precip Events Conditions
12:54 AM 51.1 °F - 48.0 °F 89% 30.03 in 10.0 mi West 4.6 mph - N/A   Overcast
1:54 AM 51.1 °F - 48.0 °F 89% 30.01 in 10.0 mi WSW 5.8 mph - N/A   Overcast
2:54 AM 51.1 °F - 46.9 °F 86% 30.00 in 10.0 mi West 6.9 mph - N/A   Overcast
3:54 AM 51.1 °F - 46.9 °F 86% 30.00 in 10.0 mi West 6.9 mph - N/A   Overcast
4:54 AM 50.0 °F - 46.9 °F 89% 29.99 in 10.0 mi West 5.8 mph - N/A   Mostly Cloudy
5:54 AM 48.0 °F - 45.0 °F 89% 29.98 in 10.0 mi NW 5.8 mph - N/A   Mostly Cloudy
6:54 AM 46.9 °F - 41.0 °F 80% 30.00 in 10.0 mi WNW 3.5 mph - N/A   Mostly Cloudy
7:54 AM 46.9 °F - 42.1 °F 83% 30.01 in 10.0 mi WNW 3.5 mph - N/A   Scattered Clouds
8:54 AM 50.0 °F - 42.1 °F 74% 30.01 in 10.0 mi Calm Calm - N/A   Scattered Clouds
9:54 AM 51.1 °F - 42.1 °F 71% 30.02 in 10.0 mi Variable 4.6 mph - N/A   Scattered Clouds
10:54 AM 54.0 °F - 43.0 °F 66% 30.01 in 10.0 mi Variable 3.5 mph - N/A   Scattered Clouds
11:06 AM 55.0 °F - 43.0 °F 64% 30.01 in 10.0 mi WNW 8.1 mph - N/A   Mostly Cloudy
11:46 AM 55.9 °F - 44.1 °F 64% 30.00 in 10.0 mi Variable 4.6 mph - N/A   Scattered Clouds
11:54 AM 57.0 °F - 44.1 °F 62% 29.99 in 10.0 mi WSW 5.8 mph - N/A   Scattered Clouds
12:54 PM 60.1 °F - 42.1 °F 51% 29.98 in 10.0 mi NW 10.4 mph - N/A   Mostly Cloudy
1:54 PM 59.0 °F - 42.1 °F 53% 29.96 in 10.0 mi SSW 8.1 mph - N/A   Mostly Cloudy
2:54 PM 59.0 °F - 42.1 °F 53% 29.94 in 10.0 mi West 6.9 mph - N/A   Mostly Cloudy
3:47 PM 55.0 °F - 50.0 °F 83% 29.97 in 7.0 mi West 3.5 mph - 0.05 in   Mostly Cloudy
3:54 PM 55.0 °F - 48.0 °F 77% 29.96 in 7.0 mi Variable 3.5 mph - 0.05 in   Mostly Cloudy
4:54 PM 57.2 °F - 48.2 °F 72% 29.96 in 10.0 mi West 12.7 mph 25.3 mph N/A   Mostly Cloudy
5:03 PM 52.0 °F - 45.0 °F 77% 29.96 in 10.0 mi WNW 17.3 mph 31.1 mph N/A   Mostly Cloudy
5:14 PM 51.1 °F - 45.0 °F 80% 29.96 in 10.0 mi WNW 15.0 mph 21.9 mph 0.00 in Rain Light Rain
5:54 PM 51.1 °F - 48.0 °F 89% 29.99 in 7.0 mi Variable 3.5 mph - 0.00 in Rain Light Rain
6:22 PM 51.1 °F - 46.9 °F 86% 29.99 in 10.0 mi Calm Calm - 0.00 in Rain Light Rain
6:54 PM 52.0 °F - 46.9 °F 83% 30.00 in 10.0 mi Calm Calm - 0.00 in   Mostly Cloudy
7:54 PM 51.1 °F - 48.0 °F 89% 30.03 in 10.0 mi SW 3.5 mph - 0.00 in Rain Light Rain
8:34 PM 46.9 °F - 44.1 °F 90% 30.06 in 4.0 mi NW 11.5 mph 28.8 mph 0.04 in Rain Heavy Small Hail
8:44 PM 46.9 °F - 45.0 °F 93% 30.06 in 5.0 mi WNW 8.1 mph - 0.07 in Rain Rain
8:54 PM 46.0 °F 42.5 °F 44.1 °F 93% 30.07 in 5.0 mi Variable 6.9 mph - 0.09 in Rain Light Rain
9:22 PM 46.9 °F - 46.0 °F 97% 30.07 in 10.0 mi SSE 6.9 mph - 0.00 in   Overcast
9:54 PM 46.0 °F 43.1 °F 45.0 °F 96% 30.08 in 10.0 mi SSE 5.8 mph - 0.00 in   Overcast
10:54 PM 45.0 °F 42.6 °F 45.0 °F 100% 30.09 in 8.0 mi SSE 4.6 mph - N/A   Mostly Cloudy
11:34 PM 46.0 °F 43.1 °F 45.0 °F 96% 30.09 in 7.0 mi South 5.8 mph - N/A   Overcast
11:54 PM 46.9 °F - 46.0 °F 97% 30.08 in 7.0 mi South 8.1 mph - N/A   Overcast